| time (UTC) | temp F | wind direction | speed knots | gust knots | rain 1hr in | rain 24hr in | rain mn in | humidity % | barometer mb |
| 20260507080501 | 62 | 227 | 2.6 | 5.2 | 0.00 | 0.00 | 0.00 | 73 | 1016.3 |
| 20260507080000 | 62 | 226 | 2.6 | 4.3 | 0.00 | 0.00 | 0.00 | 72 | 1016.3 |
| 20260507075500 | 63 | 217 | 1.7 | 4.3 | 0.00 | 0.00 | 0.00 | 72 | 1016.4 |
| 20260507075000 | 63 | 199 | 0.9 | 3.5 | 0.00 | 0.00 | 0.00 | 72 | 1016.4 |
| 20260507074500 | 63 | 244 | 0.9 | 3.5 | 0.00 | 0.00 | 0.00 | 72 | 1016.3 |
| 20260507074003 | 63 | 220 | 0.9 | 3.5 | 0.00 | 0.00 | 0.00 | 73 | 1016.3 |
| 20260507073500 | 63 | 219 | 0.9 | 5.2 | 0.00 | 0.00 | 0.00 | 73 | 1016.2 |
| 20260507073003 | 62 | 237 | 1.7 | 5.2 | 0.00 | 0.00 | 0.00 | 73 | 1016.2 |
| 20260507072503 | 62 | 221 | 1.7 | 3.5 | 0.00 | 0.00 | 0.00 | 75 | 1016.2 |
| 20260507071003 | 61 | 240 | 2.6 | 4.3 | 0.00 | 0.00 | 0.00 | 77 | 1016.2 |
| 20260507070006 | 61 | 247 | 2.6 | 5.2 | 0.00 | 0.00 | 0.00 | 77 | 1016.2 |
| 20260507065506 | 61 | 217 | 2.6 | 5.2 | 0.00 | 0.00 | 0.00 | 77 | 1016.4 |
| 20260507065003 | 61 | 222 | 2.6 | 6.1 | 0.00 | 0.00 | 0.00 | 76 | 1016.4 |
| 20260507064503 | 61 | 229 | 2.6 | 6.1 | 0.00 | 0.00 | 0.00 | 76 | 1016.3 |
| 20260507064003 | 61 | 236 | 2.6 | 6.1 | 0.00 | 0.00 | 0.00 | 76 | 1016.3 |
| 20260507063500 | 61 | 227 | 2.6 | 6.1 | 0.00 | 0.00 | 0.00 | 77 | 1016.3 |
| 20260507063004 | 61 | 232 | 2.6 | 5.2 | 0.00 | 0.00 | 0.00 | 76 | 1016.3 |
| 20260507062503 | 61 | 190 | 2.6 | 7.0 | 0.00 | 0.00 | 0.00 | 76 | 1016.2 |
| 20260507062004 | 61 | 233 | 3.5 | 7.8 | 0.00 | 0.00 | 0.00 | 76 | 1016.1 |
| 20260507061503 | 61 | 220 | 2.6 | 7.8 | 0.00 | 0.00 | 0.00 | 76 | 1016.1 |
| 20260507061001 | 61 | 249 | 2.6 | 5.2 | 0.00 | 0.00 | 0.00 | 76 | 1016.1 |
| 20260507060503 | 61 | 203 | 1.7 | 5.2 | 0.00 | 0.00 | 0.00 | 75 | 1016.1 |
| 20260507060004 | 61 | 209 | 0.9 | 3.5 | 0.00 | 0.00 | 0.00 | 75 | 1016.1 |
| 20260507055502 | 61 | 223 | 0.9 | 3.5 | 0.00 | 0.00 | 0.00 | 75 | 1016.2 |
| 20260507055002 | 62 | 223 | 0.0 | 1.7 | 0.00 | 0.00 | 0.00 | 74 | 1016.1 |
| 20260507054503 | 62 | 200 | 0.9 | 2.6 | 0.00 | 0.00 | 0.00 | 75 | 1016.1 |
| 20260507054003 | 62 | 229 | 0.9 | 7.0 | 0.00 | 0.00 | 0.00 | 75 | 1016.1 |
| 20260507053459 | 62 | 202 | 0.9 | 5.2 | 0.00 | 0.00 | 0.00 | 75 | 1016.1 |
| 20260507053004 | 62 | 205 | 0.9 | 6.1 | 0.00 | 0.00 | 0.00 | 75 | 1016.1 |
| 20260507052500 | 61 | 158 | 1.7 | 3.5 | 0.00 | 0.00 | 0.00 | 76 | 1015.9 |
| 20260507052000 | 61 | 139 | 0.9 | 3.5 | 0.00 | 0.00 | 0.00 | 77 | 1015.9 |
| 20260507051000 | 61 | 152 | 0.9 | 3.5 | 0.00 | 0.00 | 0.00 | 76 | 1015.9 |
| 20260507050503 | 61 | 162 | 0.9 | 4.3 | 0.00 | 0.00 | 0.00 | 76 | 1015.7 |
| 20260507050003 | 60 | 155 | 0.9 | 4.3 | 0.00 | 0.00 | 0.00 | 75 | 1015.8 |
| 20260507045004 | 60 | 147 | 0.0 | 2.6 | 0.00 | 0.00 | 0.00 | 76 | 1015.7 |
| 20260507043959 | 60 | 213 | 0.0 | 1.7 | 0.00 | 0.00 | 0.00 | 77 | 1015.7 |
| 20260507043504 | 60 | 213 | 0.9 | 3.5 | 0.00 | 0.00 | 0.00 | 77 | 1015.7 |
| 20260507043000 | 60 | 210 | 1.7 | 3.5 | 0.00 | 0.00 | 0.00 | 76 | 1015.7 |
| 20260507042503 | 60 | 244 | 1.7 | 3.5 | 0.00 | 0.00 | 0.00 | 75 | 1015.7 |
| 20260507041959 | 60 | 215 | 0.9 | 2.6 | 0.00 | 0.00 | 0.00 | 75 | 1015.6 |
| 20260507041500 | 61 | 218 | 0.9 | 2.6 | 0.00 | 0.00 | 0.00 | 75 | 1015.4 |
| 20260507041000 | 61 | 225 | 1.7 | 4.3 | 0.00 | 0.00 | 0.00 | 75 | 1015.3 |
| 20260507040504 | 61 | 217 | 1.7 | 4.3 | 0.00 | 0.00 | 0.00 | 75 | 1015.4 |
| 20260507040002 | 61 | 211 | 0.9 | 3.5 | 0.00 | 0.00 | 0.00 | 75 | 1015.3 |
| 20260507035500 | 61 | 216 | 0.0 | 3.5 | 0.00 | 0.00 | 0.00 | 75 | 1015.2 |
| 20260507035000 | 61 | 138 | 0.9 | 2.6 | 0.00 | 0.00 | 0.00 | 76 | 1015.1 |
| 20260507034502 | 61 | 138 | 1.7 | 3.5 | 0.00 | 0.00 | 0.00 | 76 | 1015.2 |
| 20260507034002 | 61 | 173 | 0.9 | 3.5 | 0.00 | 0.00 | 0.00 | 77 | 1015.0 |
| 20260507033459 | 60 | 142 | 0.9 | 2.6 | 0.00 | 0.00 | 0.00 | 77 | 1014.9 |
| 20260507033002 | 60 | 142 | 0.9 | 2.6 | 0.00 | 0.00 | 0.00 | 78 | 1015.0 |
| 20260507032000 | 60 | 223 | 0.0 | 0.9 | 0.00 | 0.00 | 0.00 | 79 | 1014.9 |
| 20260507031500 | 61 | 223 | 0.0 | 0.9 | 0.00 | 0.00 | 0.00 | 79 | 1014.8 |
| 20260507031000 | 61 | 223 | 0.0 | 0.9 | 0.00 | 0.00 | 0.00 | 79 | 1014.8 |
| 20260507030005 | 61 | 223 | 0.0 | 0.9 | 0.00 | 0.00 | 0.00 | 79 | 1014.8 |
| 20260507025000 | 61 | 223 | 0.9 | 2.6 | 0.00 | 0.00 | 0.00 | 79 | 1014.6 |
| 20260507024459 | 61 | 223 | 1.7 | 2.6 | 0.00 | 0.00 | 0.00 | 79 | 1014.6 |
| 20260507024000 | 61 | 234 | 0.9 | 2.6 | 0.00 | 0.00 | 0.00 | 79 | 1014.6 |
| 20260507023502 | 61 | 229 | 0.0 | 1.7 | 0.00 | 0.00 | 0.00 | 79 | 1014.6 |
| 20260507022959 | 61 | 240 | 0.0 | 0.9 | 0.00 | 0.00 | 0.00 | 79 | 1014.5 |
| 20260507022459 | 61 | 240 | 0.0 | 0.0 | 0.00 | 0.00 | 0.00 | 79 | 1014.4 |
| 20260507022003 | 61 | 240 | 0.0 | 0.9 | 0.00 | 0.00 | 0.00 | 79 | 1014.3 |
| 20260507021500 | 61 | 240 | 0.9 | 2.6 | 0.00 | 0.00 | 0.00 | 79 | 1014.3 |
| 20260507021000 | 61 | 241 | 1.7 | 3.5 | 0.00 | 0.00 | 0.00 | 79 | 1014.3 |
| 20260507020500 | 61 | 250 | 1.7 | 3.5 | 0.00 | 0.00 | 0.00 | 79 | 1014.3 |
| 20260507020003 | 61 | 262 | 1.7 | 3.5 | 0.00 | 0.00 | 0.00 | 80 | 1014.3 |
| 20260507015500 | 61 | 266 | 0.9 | 2.6 | 0.00 | 0.00 | 0.00 | 79 | 1014.2 |
| 20260507014959 | 61 | 263 | 0.0 | 1.7 | 0.00 | 0.00 | 0.00 | 79 | 1014.1 |
| 20260507014502 | 61 | 292 | 0.0 | 1.7 | 0.00 | 0.00 | 0.00 | 79 | 1014.2 |
| 20260507014000 | 61 | 292 | 0.0 | 1.7 | 0.00 | 0.00 | 0.00 | 78 | 1014.1 |
| 20260507013500 | 61 | 292 | 0.9 | 1.7 | 0.00 | 0.00 | 0.00 | 78 | 1014.0 |
| 20260507013003 | 61 | 292 | 0.0 | 1.7 | 0.00 | 0.00 | 0.00 | 78 | 1014.1 |
| 20260507012502 | 61 | 292 | 0.0 | 1.7 | 0.00 | 0.00 | 0.00 | 78 | 1014.1 |
| 20260507011959 | 61 | 290 | 0.0 | 2.6 | 0.00 | 0.00 | 0.00 | 78 | 1014.0 |
| 20260507011459 | 61 | 294 | 0.0 | 0.9 | 0.00 | 0.00 | 0.00 | 77 | 1013.9 |
| 20260507011002 | 61 | 296 | 0.0 | 0.9 | 0.00 | 0.00 | 0.00 | 77 | 1014.1 |
| 20260507010503 | 61 | 296 | 0.0 | 0.9 | 0.00 | 0.00 | 0.00 | 76 | 1013.9 |
| 20260507010003 | 61 | 296 | 0.0 | 0.9 | 0.00 | 0.00 | 0.00 | 76 | 1013.8 |
| 20260507005502 | 61 | 252 | 0.9 | 2.6 | 0.00 | 0.00 | 0.00 | 76 | 1013.8 |
| 20260507005002 | 62 | 252 | 1.7 | 2.6 | 0.00 | 0.00 | 0.00 | 75 | 1013.9 |
| 20260507004503 | 62 | 252 | 0.9 | 2.6 | 0.00 | 0.00 | 0.00 | 74 | 1013.9 |
| 20260507004002 | 62 | 295 | 0.0 | 1.7 | 0.00 | 0.00 | 0.00 | 74 | 1013.9 |
| 20260507003459 | 62 | 284 | 0.0 | 1.7 | 0.00 | 0.00 | 0.00 | 73 | 1013.8 |
| 20260507003003 | 62 | 285 | 0.0 | 1.7 | 0.00 | 0.00 | 0.00 | 72 | 1013.9 |
| 20260507002501 | 63 | 295 | 0.0 | 1.7 | 0.00 | 0.00 | 0.00 | 72 | 1013.9 |
| 20260507002003 | 63 | 248 | 0.9 | 3.5 | 0.00 | 0.00 | 0.00 | 71 | 1013.9 |
| 20260507001502 | 63 | 286 | 1.7 | 3.5 | 0.00 | 0.00 | 0.00 | 71 | 1013.8 |
| 20260507001000 | 63 | 289 | 1.7 | 2.6 | 0.00 | 0.00 | 0.00 | 70 | 1013.9 |
| 20260507000502 | 64 | 276 | 1.7 | 2.6 | 0.00 | 0.00 | 0.00 | 69 | 1014.0 |
| 20260507000000 | 64 | 257 | 1.7 | 3.5 | 0.00 | 0.00 | 0.00 | 69 | 1013.9 |
| 20260506235500 | 64 | 280 | 1.7 | 4.3 | 0.00 | 0.00 | 0.00 | 68 | 1013.9 |
| 20260506234000 | 65 | 263 | 2.6 | 4.3 | 0.00 | 0.00 | 0.00 | 66 | 1013.9 |
| 20260506233500 | 65 | 261 | 2.6 | 7.8 | 0.00 | 0.00 | 0.00 | 66 | 1013.9 |
| 20260506232959 | 66 | 283 | 3.5 | 7.0 | 0.00 | 0.00 | 0.00 | 66 | 1013.9 |
| 20260506231459 | 66 | 269 | 3.5 | 7.8 | 0.00 | 0.00 | 0.00 | 64 | 1013.8 |
| 20260506230959 | 66 | 266 | 2.6 | 7.8 | 0.00 | 0.00 | 0.00 | 64 | 1013.8 |
| 20260506230500 | 66 | 267 | 2.6 | 5.2 | 0.00 | 0.00 | 0.00 | 63 | 1013.8 |
| 20260506230003 | 66 | 265 | 2.6 | 6.1 | 0.00 | 0.00 | 0.00 | 62 | 1013.7 |
| 20260506225502 | 66 | 271 | 2.6 | 6.1 | 0.00 | 0.00 | 0.00 | 62 | 1013.6 |
| 20260506225000 | 66 | 319 | 2.6 | 7.8 | 0.00 | 0.00 | 0.00 | 61 | 1013.6 |
| 20260506224458 | 66 | 252 | 2.6 | 7.0 | 0.00 | 0.00 | 0.00 | 61 | 1013.5 |
| 20260506223503 | 66 | 265 | 4.3 | 8.7 | 0.00 | 0.00 | 0.00 | 61 | 1013.3 |
| 20260506222958 | 67 | 257 | 3.5 | 7.0 | 0.00 | 0.00 | 0.00 | 60 | 1013.1 |
| 20260506222459 | 66 | 219 | 3.5 | 6.1 | 0.00 | 0.00 | 0.00 | 60 | 1013.0 |
| 20260506222000 | 66 | 216 | 2.6 | 6.1 | 0.00 | 0.00 | 0.00 | 60 | 1013.1 |
| 20260506221502 | 66 | 213 | 1.7 | 5.2 | 0.00 | 0.00 | 0.00 | 60 | 1013.0 |
| 20260506221001 | 66 | 207 | 1.7 | 3.5 | 0.00 | 0.00 | 0.00 | 60 | 1013.1 |
| 20260506220459 | 67 | 219 | 2.6 | 4.3 | 0.00 | 0.00 | 0.00 | 60 | 1013.0 |
| 20260506220003 | 67 | 207 | 2.6 | 4.3 | 0.00 | 0.00 | 0.00 | 60 | 1013.0 |
| 20260506215503 | 67 | 245 | 2.6 | 4.3 | 0.00 | 0.00 | 0.00 | 60 | 1013.0 |
| 20260506214503 | 67 | 211 | 2.6 | 4.3 | 0.00 | 0.00 | 0.00 | 59 | 1012.8 |
| 20260506214003 | 67 | 225 | 2.6 | 3.5 | 0.00 | 0.00 | 0.00 | 59 | 1012.7 |
| 20260506213003 | 67 | 257 | 2.6 | 3.5 | 0.00 | 0.00 | 0.00 | 59 | 1012.7 |
| 20260506212503 | 67 | 243 | 2.6 | 4.3 | 0.00 | 0.00 | 0.00 | 59 | 1012.6 |
| 20260506212003 | 67 | 242 | 2.6 | 4.3 | 0.00 | 0.00 | 0.00 | 59 | 1012.6 |
| 20260506211502 | 67 | 232 | 2.6 | 4.3 | 0.00 | 0.00 | 0.00 | 58 | 1012.7 |
| 20260506211003 | 68 | 211 | 2.6 | 4.3 | 0.00 | 0.00 | 0.00 | 58 | 1012.6 |
| 20260506210503 | 68 | 238 | 2.6 | 4.3 | 0.00 | 0.00 | 0.00 | 58 | 1012.6 |
| 20260506210003 | 68 | 254 | 2.6 | 4.3 | 0.00 | 0.00 | 0.00 | 57 | 1012.6 |
| 20260506205503 | 68 | 249 | 1.7 | 4.3 | 0.00 | 0.00 | 0.00 | 57 | 1012.6 |
| 20260506205003 | 68 | 217 | 0.9 | 3.5 | 0.00 | 0.00 | 0.00 | 57 | 1012.4 |
| 20260506204500 | 68 | 210 | 0.9 | 3.5 | 0.00 | 0.00 | 0.00 | 57 | 1012.4 |
| 20260506204003 | 68 | 200 | 0.9 | 3.5 | 0.00 | 0.00 | 0.00 | 57 | 1012.4 |
| 20260506203503 | 68 | 193 | 0.9 | 3.5 | 0.00 | 0.00 | 0.00 | 57 | 1012.3 |
| 20260506203004 | 68 | 225 | 0.0 | 3.5 | 0.00 | 0.00 | 0.00 | 57 | 1012.4 |
| 20260506202004 | 68 | 196 | 0.0 | 2.6 | 0.00 | 0.00 | 0.00 | 57 | 1012.2 |
| 20260506201504 | 68 | 180 | 0.0 | 0.9 | 0.00 | 0.00 | 0.00 | 57 | 1012.3 |
| 20260506201003 | 69 | 158 | 0.9 | 4.3 | 0.00 | 0.00 | 0.00 | 57 | 1012.3 |
| 20260506200503 | 69 | 158 | 2.6 | 7.0 | 0.00 | 0.00 | 0.00 | 57 | 1012.2 |
| 20260506200004 | 69 | 138 | 3.5 | 7.0 | 0.00 | 0.00 | 0.00 | 57 | 1012.0 |
| 20260506195003 | 69 | 146 | 3.5 | 7.0 | 0.00 | 0.00 | 0.00 | 56 | 1012.0 |
| 20260506194503 | 69 | 157 | 4.3 | 7.0 | 0.00 | 0.00 | 0.00 | 56 | 1012.0 |
| 20260506194003 | 69 | 132 | 3.5 | 6.1 | 0.00 | 0.00 | 0.00 | 57 | 1012.0 |
| 20260506193502 | 69 | 136 | 0.9 | 4.3 | 0.00 | 0.00 | 0.00 | 57 | 1011.9 |
| 20260506191002 | 71 | 146 | 4.3 | 7.8 | 0.00 | 0.00 | 0.00 | 53 | 1011.6 |
| 20260506190503 | 71 | 136 | 3.5 | 7.8 | 0.00 | 0.00 | 0.00 | 53 | 1011.6 |
| 20260506190005 | 71 | 136 | 3.5 | 8.7 | 0.00 | 0.00 | 0.00 | 53 | 1011.6 |
| 20260506185504 | 71 | 122 | 3.5 | 8.7 | 0.00 | 0.00 | 0.00 | 53 | 1011.5 |
| 20260506185003 | 71 | 121 | 2.6 | 7.8 | 0.00 | 0.00 | 0.00 | 54 | 1011.6 |
| 20260506184503 | 71 | 131 | 1.7 | 6.1 | 0.00 | 0.00 | 0.00 | 54 | 1011.4 |
| 20260506184003 | 71 | 108 | 1.7 | 5.2 | 0.00 | 0.00 | 0.00 | 54 | 1011.4 |
| 20260506183503 | 72 | 115 | 2.6 | 5.2 | 0.00 | 0.00 | 0.00 | 54 | 1011.4 |
| 20260506182003 | 72 | 99 | 2.6 | 5.2 | 0.00 | 0.00 | 0.00 | 53 | 1011.4 |
| 20260506181503 | 72 | 97 | 2.6 | 5.2 | 0.00 | 0.00 | 0.00 | 53 | 1011.3 |
| 20260506181003 | 72 | 98 | 2.6 | 5.2 | 0.00 | 0.00 | 0.00 | 53 | 1011.2 |
| 20260506180504 | 73 | 105 | 2.6 | 5.2 | 0.00 | 0.00 | 0.00 | 53 | 1011.3 |
| 20260506180004 | 73 | 90 | 2.6 | 3.5 | 0.00 | 0.00 | 0.00 | 53 | 1011.3 |
| 20260506175503 | 73 | 96 | 1.7 | 3.5 | 0.00 | 0.00 | 0.00 | 52 | 1011.3 |
| 20260506174459 | 73 | 104 | 1.7 | 4.3 | 0.00 | 0.00 | 0.00 | 52 | 1011.1 |
| 20260506174003 | 73 | 103 | 1.7 | 3.5 | 0.00 | 0.00 | 0.00 | 52 | 1011.1 |
| 20260506173503 | 74 | 105 | 1.7 | 5.2 | 0.00 | 0.00 | 0.00 | 52 | 1011.0 |
| 20260506172500 | 74 | 98 | 1.7 | 3.5 | 0.00 | 0.00 | 0.00 | 51 | 1011.1 |
| 20260506172003 | 75 | 105 | 1.7 | 3.5 | 0.00 | 0.00 | 0.00 | 50 | 1011.1 |
| 20260506171503 | 75 | 101 | 1.7 | 3.5 | 0.00 | 0.00 | 0.00 | 49 | 1011.1 |
| 20260506171003 | 75 | 98 | 1.7 | 3.5 | 0.00 | 0.00 | 0.00 | 49 | 1011.2 |
| 20260506170504 | 76 | 96 | 1.7 | 3.5 | 0.00 | 0.00 | 0.00 | 49 | 1011.2 |
| 20260506170003 | 76 | 99 | 1.7 | 3.5 | 0.00 | 0.00 | 0.00 | 49 | 1011.2 |
| 20260506165503 | 76 | 93 | 0.9 | 2.6 | 0.00 | 0.00 | 0.00 | 48 | 1011.3 |
| 20260506164503 | 77 | 119 | 0.9 | 2.6 | 0.00 | 0.00 | 0.00 | 47 | 1011.1 |
| 20260506163004 | 78 | 111 | 1.7 | 5.2 | 0.00 | 0.00 | 0.00 | 46 | 1011.1 |
| 20260506162503 | 78 | 123 | 1.7 | 5.2 | 0.00 | 0.00 | 0.00 | 46 | 1011.3 |
| 20260506162004 | 78 | 123 | 1.7 | 7.8 | 0.00 | 0.00 | 0.00 | 47 | 1011.3 |
| 20260506161504 | 78 | 96 | 1.7 | 7.8 | 0.00 | 0.00 | 0.00 | 47 | 1011.4 |
| 20260506161004 | 78 | 131 | 0.9 | 5.2 | 0.00 | 0.00 | 0.00 | 46 | 1011.4 |
| 20260506160503 | 78 | 135 | 1.7 | 3.5 | 0.00 | 0.00 | 0.00 | 46 | 1011.3 |
| 20260506155502 | 78 | 94 | 2.6 | 10.4 | 0.00 | 0.00 | 0.00 | 44 | 1011.3 |
| 20260506155003 | 79 | 127 | 1.7 | 6.1 | 0.00 | 0.00 | 0.00 | 44 | 1011.3 |
| 20260506154502 | 79 | 118 | 1.7 | 6.1 | 0.00 | 0.00 | 0.00 | 44 | 1011.3 |
| 20260506154003 | 79 | 110 | 1.7 | 5.2 | 0.00 | 0.00 | 0.00 | 45 | 1011.4 |
| 20260506153503 | 79 | 90 | 2.6 | 5.2 | 0.00 | 0.00 | 0.00 | 44 | 1011.5 |
| 20260506153003 | 79 | 96 | 2.6 | 6.1 | 0.00 | 0.00 | 0.00 | 43 | 1011.6 |
| 20260506152500 | 79 | 123 | 3.5 | 8.7 | 0.00 | 0.00 | 0.00 | 43 | 1011.6 |
| 20260506152000 | 79 | 139 | 4.3 | 9.6 | 0.00 | 0.00 | 0.00 | 44 | 1011.6 |
| 20260506151501 | 80 | 90 | 2.6 | 9.6 | 0.00 | 0.00 | 0.00 | 43 | 1011.6 |
| 20260506150005 | 80 | 74 | 1.7 | 5.2 | 0.00 | 0.00 | 0.00 | 43 | 1011.6 |
| 20260506145004 | 80 | 103 | 1.7 | 9.6 | 0.00 | 0.00 | 0.00 | 42 | 1011.8 |
| 20260506144503 | 80 | 65 | 0.9 | 2.6 | 0.00 | 0.00 | 0.00 | 42 | 1011.7 |
| 20260506144003 | 80 | 173 | 0.9 | 2.6 | 0.00 | 0.00 | 0.00 | 44 | 1011.9 |
| 20260506143503 | 80 | 198 | 1.7 | 5.2 | 0.00 | 0.00 | 0.00 | 45 | 1011.9 |
| 20260506142003 | 80 | 127 | 2.6 | 7.8 | 0.00 | 0.00 | 0.00 | 42 | 1011.9 |
| 20260506141502 | 80 | 86 | 2.6 | 7.8 | 0.00 | 0.00 | 0.00 | 44 | 1012.0 |
| 20260506141003 | 80 | 137 | 1.7 | 6.1 | 0.00 | 0.00 | 0.00 | 42 | 1012.0 |
| 20260506140503 | 80 | 74 | 1.7 | 6.1 | 0.00 | 0.00 | 0.00 | 42 | 1012.0 |
| 20260506140005 | 80 | 115 | 2.6 | 6.1 | 0.00 | 0.00 | 0.00 | 41 | 1012.0 |
| 20260506135503 | 80 | 130 | 3.5 | 10.4 | 0.00 | 0.00 | 0.00 | 43 | 1012.1 |
| 20260506135003 | 80 | 117 | 2.6 | 8.7 | 0.00 | 0.00 | 0.00 | 44 | 1012.1 |
| 20260506134503 | 80 | 106 | 2.6 | 7.0 | 0.00 | 0.00 | 0.00 | 43 | 1012.1 |
| 20260506134004 | 80 | 90 | 2.6 | 7.8 | 0.00 | 0.00 | 0.00 | 43 | 1012.2 |
| 20260506133003 | 81 | 74 | 2.6 | 7.8 | 0.00 | 0.00 | 0.00 | 41 | 1012.4 |
| 20260506132503 | 81 | 94 | 2.6 | 7.8 | 0.00 | 0.00 | 0.00 | 41 | 1012.4 |
| 20260506132003 | 82 | 171 | 1.7 | 4.3 | 0.00 | 0.00 | 0.00 | 41 | 1012.5 |
| 20260506131504 | 81 | 221 | 0.9 | 4.3 | 0.00 | 0.00 | 0.00 | 44 | 1012.5 |
| 20260506131003 | 81 | 150 | 2.6 | 7.8 | 0.00 | 0.00 | 0.00 | 46 | 1012.6 |
| 20260506130503 | 80 | 141 | 4.3 | 9.6 | 0.00 | 0.00 | 0.00 | 44 | 1012.6 |
| 20260506130003 | 81 | 76 | 3.5 | 9.6 | 0.00 | 0.00 | 0.00 | 43 | 1012.7 |
| 20260506125504 | 81 | 111 | 2.6 | 7.8 | 0.00 | 0.00 | 0.00 | 42 | 1012.8 |
| 20260506124503 | 81 | 254 | 1.7 | 7.8 | 0.00 | 0.00 | 0.00 | 46 | 1012.9 |
| 20260506123501 | 80 | 80 | 1.7 | 7.8 | 0.00 | 0.00 | 0.00 | 42 | 1013.1 |
| 20260506123000 | 80 | 153 | 1.7 | 7.0 | 0.00 | 0.00 | 0.00 | 43 | 1013.2 |
| 20260506122500 | 80 | 121 | 1.7 | 7.0 | 0.00 | 0.00 | 0.00 | 44 | 1013.2 |
| 20260506122000 | 79 | 200 | 2.6 | 10.4 | 0.00 | 0.00 | 0.00 | 48 | 1013.2 |
| 20260506121501 | 79 | 78 | 2.6 | 10.4 | 0.00 | 0.00 | 0.00 | 45 | 1013.3 |
| 20260506121003 | 80 | 126 | 3.5 | 7.8 | 0.00 | 0.00 | 0.00 | 44 | 1013.2 |
| 20260506120500 | 81 | 105 | 2.6 | 8.7 | 0.00 | 0.00 | 0.00 | 43 | 1013.3 |
| 20260506120004 | 81 | 142 | 1.7 | 7.8 | 0.00 | 0.00 | 0.00 | 44 | 1013.4 |
| 20260506115503 | 81 | 72 | 1.7 | 6.1 | 0.00 | 0.00 | 0.00 | 44 | 1013.4 |
| 20260506115004 | 81 | 254 | 2.6 | 6.1 | 0.00 | 0.00 | 0.00 | 44 | 1013.5 |
| 20260506114503 | 81 | 238 | 1.7 | 5.2 | 0.00 | 0.00 | 0.00 | 46 | 1013.5 |
| 20260506113503 | 80 | 119 | 1.7 | 5.2 | 0.00 | 0.00 | 0.00 | 46 | 1013.6 |
| 20260506113003 | 80 | 119 | 1.7 | 6.1 | 0.00 | 0.00 | 0.00 | 44 | 1013.6 |
| 20260506112503 | 80 | 136 | 0.9 | 6.1 | 0.00 | 0.00 | 0.00 | 45 | 1013.5 |
| 20260506112004 | 79 | 233 | 0.9 | 2.6 | 0.00 | 0.00 | 0.00 | 46 | 1013.7 |
| 20260506111503 | 79 | 93 | 0.9 | 4.3 | 0.00 | 0.00 | 0.00 | 46 | 1013.7 |
| 20260506111003 | 79 | 223 | 1.7 | 7.8 | 0.00 | 0.00 | 0.00 | 46 | 1013.9 |
| 20260506110503 | 78 | 260 | 2.6 | 7.8 | 0.00 | 0.00 | 0.00 | 48 | 1013.9 |
| 20260506110004 | 78 | 169 | 4.3 | 11.3 | 0.00 | 0.00 | 0.00 | 47 | 1013.9 |
| 20260506105503 | 78 | 138 | 3.5 | 11.3 | 0.00 | 0.00 | 0.00 | 47 | 1014.0 |
| 20260506105003 | 78 | 94 | 2.6 | 8.7 | 0.00 | 0.00 | 0.00 | 44 | 1014.0 |
| 20260506104502 | 78 | 160 | 2.6 | 8.7 | 0.00 | 0.00 | 0.00 | 45 | 1014.1 |
| 20260506104003 | 78 | 108 | 0.9 | 5.2 | 0.00 | 0.00 | 0.00 | 44 | 1014.1 |
| 20260506103503 | 78 | 235 | 0.9 | 4.3 | 0.00 | 0.00 | 0.00 | 46 | 1014.2 |
| 20260506103004 | 78 | 125 | 1.7 | 4.3 | 0.00 | 0.00 | 0.00 | 45 | 1014.3 |
| 20260506102503 | 78 | 203 | 2.6 | 6.1 | 0.00 | 0.00 | 0.00 | 45 | 1014.4 |
| 20260506102003 | 78 | 212 | 1.7 | 6.1 | 0.00 | 0.00 | 0.00 | 46 | 1014.4 |
| 20260506101503 | 78 | 164 | 0.9 | 4.3 | 0.00 | 0.00 | 0.00 | 45 | 1014.4 |
| 20260506101003 | 78 | 82 | 1.7 | 7.0 | 0.00 | 0.00 | 0.00 | 46 | 1014.5 |
| 20260506100500 | 78 | 223 | 1.7 | 7.0 | 0.00 | 0.00 | 0.00 | 48 | 1014.6 |
| 20260506095959 | 78 | 272 | 0.9 | 5.2 | 0.00 | 0.00 | 0.00 | 45 | 1014.7 |
| 20260506095502 | 78 | 316 | 1.7 | 6.1 | 0.00 | 0.00 | 0.00 | 45 | 1014.8 |
| 20260506094503 | 78 | 262 | 2.6 | 7.8 | 0.00 | 0.00 | 0.00 | 48 | 1014.8 |
| 20260506094003 | 78 | 227 | 2.6 | 7.8 | 0.00 | 0.00 | 0.00 | 47 | 1014.9 |
| 20260506093502 | 77 | 260 | 1.7 | 7.0 | 0.00 | 0.00 | 0.00 | 48 | 1014.9 |
| 20260506093003 | 77 | 225 | 1.7 | 6.1 | 0.00 | 0.00 | 0.00 | 46 | 1014.9 |
| 20260506092503 | 77 | 113 | 0.9 | 3.5 | 0.00 | 0.00 | 0.00 | 48 | 1014.9 |
| 20260506092002 | 77 | 306 | 1.7 | 4.3 | 0.00 | 0.00 | 0.00 | 46 | 1014.9 |
| 20260506091502 | 77 | 200 | 0.9 | 4.3 | 0.00 | 0.00 | 0.00 | 47 | 1015.0 |
| 20260506091003 | 77 | 172 | 0.9 | 3.5 | 0.00 | 0.00 | 0.00 | 46 | 1015.0 |
| 20260506090503 | 77 | 211 | 1.7 | 3.5 | 0.00 | 0.00 | 0.00 | 49 | 1015.0 |
| 20260506090003 | 76 | 254 | 1.7 | 6.1 | 0.00 | 0.00 | 0.00 | 50 | 1015.0 |
| 20260506085500 | 76 | 263 | 0.9 | 4.3 | 0.00 | 0.00 | 0.00 | 47 | 1015.0 |
| 20260506085003 | 76 | 234 | 1.7 | 6.1 | 0.00 | 0.00 | 0.00 | 46 | 1015.0 |
| 20260506084502 | 76 | 234 | 2.6 | 6.1 | 0.00 | 0.00 | 0.00 | 48 | 1015.1 |
| 20260506084000 | 76 | 202 | 2.6 | 5.2 | 0.00 | 0.00 | 0.00 | 50 | 1015.0 |
| 20260506083503 | 75 | 225 | 0.9 | 5.2 | 0.00 | 0.00 | 0.00 | 50 | 1015.0 |
| 20260506083003 | 75 | 225 | 0.9 | 2.6 | 0.00 | 0.00 | 0.00 | 51 | 1015.0 |
| 20260506082503 | 75 | 212 | 0.9 | 3.5 | 0.00 | 0.00 | 0.00 | 50 | 1015.0 |
| 20260506082000 | 74 | 203 | 0.9 | 3.5 | 0.00 | 0.00 | 0.00 | 53 | 1015.0 |
| 20260506081503 | 74 | 297 | 0.9 | 3.5 | 0.00 | 0.00 | 0.00 | 51 | 1015.0 |
| 20260506081003 | 73 | 253 | 0.9 | 2.6 | 0.00 | 0.00 | 0.00 | 51 | 1015.0 |